[[{"header":{"parameterUnit":"m.s-1","parameterCategory":2,"la1":30.2991,"la2":30.254,"lo1":-89.0895,"lo2":-89.0444,"dy":0.0017,"dx":0.0017,"nx":28,"ny":28,"refTime":"2025-01-19T09:00:00:Z","depth":"0","parameterNumber":2,"parameterNumberName":"U-component_of_CURRENTS"},"data":[0,0,0,0,0,0,0,0,0,0,0,0,0,0,0,0,0,0,0,0,0,0,0,0,0,0,0,0,0,0,0,0,0,0,0,0,0,0,0,0,0,0,0,0,0,0,0,0,0,0,0,0,0,0,0,0,0,0,0.1871,0.1871,0,0.1856,0.1855,0.1855,0.1866,0.1867,0.1868,0.1869,0.1866,0.1866,0.1865,0,0,0,0,0,0,0,0,0,0,0,0,0,0.194,0.1939,0.1871,0.1871,0.1871,0.1856,0.1855,0.1855,0.1866,0.1867,0.1868,0.1869,0.1867,0.1866,0.1865,0,0,0,0,0,0,0,0,0,0,0,0,0,0.1912,0.1938,0.1871,0.1878,0.1879,0.1856,0.1855,0.1854,0.1865,0.1867,0.1868,0.187,0.1867,0.1866,0.1864,0.1828,0,0,0.186,0.186,0,0,0,0,0,0,0,0,0.1913,0.1908,0.1877,0.1878,0.1879,0.1868,0.1879,0.1848,0.1865,0.1866,0.1869,0.187,0.187,0.1869,0.1856,0.1828,0.1828,0.186,0.1859,0.1859,0.1858,0,0,0,0,0,0,0,0.1915,0.1909,0.186,0.1877,0.1878,0.1894,0.1891,0.1873,0.1857,0.1866,0.1868,0.1873,0.1871,0.1857,0.1856,0.1828,0.186,0.1859,0.1858,0.1858,0.186,0.1861,0,0,0,0,0,0,0.1923,0.1911,0.186,0.186,0.1905,0.1892,0.1888,0.1866,0.1857,0.1858,0.1872,0.1874,0.1859,0.1858,0.1856,0.1888,0.1859,0.1857,0.1857,0.186,0.1861,0.1862,0,0,0,0,0,0,0.1924,0.1917,0.1861,0.1891,0.1886,0.1889,0.1865,0.1865,0.1866,0.1862,0.1863,0.1875,0.186,0.1858,0.1859,0.1885,0.1857,0.1856,0.1858,0.186,0.1861,0.1903,0,0,0,0,0,0,0.1925,0.1917,0.19,0.189,0.1884,0.1866,0.1864,0.1864,0.1868,0.1871,0.1864,0.1865,0.1861,0.1861,0.1858,0.1883,0.1854,0.1857,0.1859,0.1861,0.19,0.1905,0.191,0,0,0,0,0,0.1927,0.1902,0.1898,0.1893,0.1861,0.1867,0.1865,0.187,0.1867,0.1873,0.1868,0.1866,0.187,0.186,0.1856,0.1881,0.1856,0.1859,0.1861,0.1898,0.1904,0.191,0,0,0,0,0,0,0.1905,0.19,0.1897,0.1865,0.1876,0.1872,0.1871,0.1872,0.1868,0.1871,0.1862,0.1863,0.1888,0.1868,0.1857,0.1889,0.1868,0.1869,0.1898,0.1904,0.1909,0.1899,0.1853,0,0,0,0,0,0.1895,0.1889,0.1886,0.1866,0.1869,0.1869,0.1869,0.1877,0.1876,0.1875,0.1871,0.1871,0.1888,0.1882,0.1893,0.1884,0.1866,0.1903,0.1908,0.1912,0.1903,0.1881,0.1882,0.1868,0.1868,0.1868,0,0,0.1892,0.188,0.1882,0.1865,0.1867,0.1878,0.1872,0.188,0.1891,0.1874,0.1879,0.1893,0.1894,0.1911,0.1918,0.1896,0.1914,0.1915,0.1918,0.1906,0.1883,0.1884,0.1885,0.187,0.1869,0.1869,0,0,0.1883,0.1861,0.186,0.1869,0.1878,0.1885,0.1892,0.1894,0.1897,0.19,0.1912,0.1932,0.1926,0.1943,0.1949,0.1977,0.1954,0.1987,0.1983,0.1963,0.1963,0.1963,0.1969,0.1969,0.1972,0.1972,0.1972,0,0.1874,0.1858,0.1864,0.1864,0.1869,0.1892,0.1896,0.1907,0.1912,0.1902,0.1913,0.1925,0.1945,0.1962,0.199,0.1989,0.1972,0.1963,0.1968,0.1967,0.1966,0.1972,0.1971,0.1974,0.1974,0.1973,0.1973,0,0.1876,0.1863,0.1863,0.1874,0.1884,0.1894,0.1915,0.1924,0.193,0.193,0.1945,0.1965,0.1964,0.1994,0.2004,0.2018,0.2009,0.199,0.195,0.197,0.1975,0.1974,0.1977,0.1976,0.1976,0.1975,0,0,0.1835,0.1861,0.1855,0.1863,0.1886,0.1895,0.1915,0.1923,0.1925,0.194,0.1929,0.1985,0.1981,0.1989,0.2009,0.2004,0.2021,0.1993,0.1991,0.1995,0.1984,0.2027,0.203,0.199,0.1989,0.1988,0.2,0,0.1827,0.183,0.1843,0.186,0.1866,0.189,0.1903,0.1918,0.1926,0.1928,0.1946,0.1959,0.1983,0.1992,0.1991,0.2018,0.2014,0.202,0.1968,0.1967,0.1997,0.2028,0.2156,0.2179,0.1998,0.1998,0.1998,0,0.1808,0.1813,0.1817,0.1843,0.1846,0.1876,0.1888,0.1894,0.1906,0.1905,0.1906,0.1919,0.1944,0.1955,0.197,0.1966,0.1978,0.1991,0.1991,0.2009,0.2006,0.2125,0.2183,0.2178,0.1996,0.1996,0.1996,0,0.1768,0.1789,0.179,0.18,0.1836,0.1852,0.1876,0.1888,0.1897,0.1889,0.1893,0.1896,0.192,0.1911,0.1963,0.1952,0.1976,0.1957,0.2003,0.2007,0.2094,0.2107,0.2135,0.195,0.195,0.195,0.195,0,0.1737,0.1739,0.1787,0.1789,0.1791,0.1834,0.1852,0.1845,0.1889,0.1898,0.1879,0.1908,0.1908,0.193,0.1946,0.1986,0.1955,0.2011,0.2009,0.2117,0.2131,0.2111,0.2084,0.1951,0.1951,0.195,0.195,0,0.1678,0.171,0.1706,0.1752,0.1767,0.1764,0.1852,0.1861,0.1894,0.191,0.1911,0.1932,0.1966,0.1975,0.1995,0.1987,0.1998,0.2025,0.217,0.2185,0.2209,0.2179,0.2063,0.2007,0.2062,0.2063,0.2064,0,0.1644,0.1633,0.1654,0.1649,0.1677,0.172,0.1736,0.1824,0.1856,0.1938,0.1933,0.1995,0.2061,0.2102,0.2137,0.2166,0.2071,0.2222,0.2224,0.2235,0.22,0.2064,0.2013,0.2371,0.2375,0.2378,0.238,0,0.1551,0.1555,0.1564,0.1588,0.1612,0.1622,0.1691,0.1738,0.1834,0.1895,0.2,0.2088,0.22,0.2307,0.2329,0.2353,0.2196,0.2277,0.2249,0.2414,0.2305,0.2244,0.2344,0.2404,0.2402,0.24,0.2399,0.2398,0.15,0.1482,0.1524,0.1554,0.1552,0.1562,0.1598,0.1691,0.1785,0.1913,0.2035,0.2205,0.2387,0.249,0.249,0.2547,0.239,0.2524,0.2481,0.2333,0.2294,0.2454,0.2526,0.2524,0.2523,0.2522,0.2521,0,0.1497,0.1515,0.1499,0.1556,0.1556,0.1562,0.1592,0.1645,0.1762,0.1913,0.2083,0.2384,0.2549,0.2651,0.2758,0.2744,0.2637,0.2695,0.2567,0.2497,0.2654,0.2689,0.2847,0.2847,0.2847,0.2847,0.2847,0.2847,0.1525,0.156,0.1569,0.1599,0.1601,0.1601,0.1608,0.1648,0.1757,0.1949,0.2158,0.2339,0.2543,0.2797,0.2882,0.2864,0.2664,0.2672,0.2485,0.2687,0.2668,0.2649,0.2676,0.2829,0.2829,0.2341,0.2338,0.2335]},{"header":{"parameterUnit":"m.s-1","parameterCategory":2,"la1":30.2991,"la2":30.254,"lo1":-89.0895,"lo2":-89.0444,"dy":0.0017,"dx":0.0017,"nx":28,"ny":28,"refTime":"2025-01-19T09:00:00:Z","depth":"0","parameterNumber":3,"parameterNumberName":"V-component_of_CURRENTS"},"data":[0,0,0,0,0,0,0,0,0,0,0,0,0,0,0,0,0,0,0,0,0,0,0,0,0,0,0,0,0,0,0,0,0,0,0,0,0,0,0,0,0,0,0,0,0,0,0,0,0,0,0,0,0,0,0,0,0,0,-0.0219,-0.022,0,-0.0243,-0.0244,-0.0244,-0.0259,-0.026,-0.026,-0.026,-0.03,-0.0301,-0.0302,0,0,0,0,0,0,0,0,0,0,0,0,0,-0.0283,-0.0281,-0.0219,-0.022,-0.022,-0.0243,-0.0244,-0.0244,-0.0259,-0.026,-0.026,-0.026,-0.03,-0.0301,-0.0302,0,0,0,0,0,0,0,0,0,0,0,0,0,-0.0276,-0.028,-0.0219,-0.0231,-0.0232,-0.0243,-0.0244,-0.0244,-0.0259,-0.026,-0.026,-0.026,-0.03,-0.0301,-0.0303,-0.0309,0,0,-0.0307,-0.0308,0,0,0,0,0,0,0,0,-0.0276,-0.0273,-0.0229,-0.023,-0.0231,-0.0249,-0.0281,-0.0267,-0.0259,-0.0249,-0.026,-0.026,-0.0285,-0.0287,-0.0291,-0.0311,-0.0312,-0.0307,-0.0308,-0.0309,-0.0309,0,0,0,0,0,0,0,-0.0276,-0.0273,-0.0229,-0.0229,-0.023,-0.0268,-0.0266,-0.0279,-0.0266,-0.025,-0.0251,-0.0254,-0.0285,-0.029,-0.0292,-0.0313,-0.0307,-0.0309,-0.0309,-0.031,-0.0307,-0.0306,0,0,0,0,0,0,-0.0268,-0.0272,-0.0228,-0.0229,-0.0255,-0.0266,-0.0264,-0.0243,-0.0265,-0.0269,-0.0254,-0.0254,-0.0287,-0.0291,-0.0294,-0.028,-0.0309,-0.031,-0.0311,-0.0308,-0.0307,-0.0306,0,0,0,0,0,0,-0.0269,-0.0263,-0.0227,-0.0254,-0.0252,-0.0264,-0.0241,-0.0243,-0.0247,-0.0268,-0.0272,-0.0255,-0.0287,-0.0292,-0.0304,-0.0283,-0.0311,-0.0312,-0.0309,-0.0308,-0.0307,-0.0267,0,0,0,0,0,0,-0.027,-0.0262,-0.0247,-0.0252,-0.025,-0.0228,-0.0241,-0.0244,-0.0248,-0.025,-0.027,-0.0274,-0.0288,-0.0302,-0.0306,-0.0285,-0.0313,-0.0311,-0.0309,-0.0307,-0.0269,-0.0264,-0.026,0,0,0,0,0,-0.0272,-0.0247,-0.0245,-0.0241,-0.0226,-0.0228,-0.023,-0.0241,-0.0248,-0.0246,-0.0262,-0.0273,-0.0292,-0.0303,-0.0307,-0.0287,-0.0312,-0.0309,-0.0307,-0.0271,-0.0265,-0.026,0,0,0,0,0,0,-0.0254,-0.0247,-0.0245,-0.0214,-0.0219,-0.0231,-0.0228,-0.0239,-0.025,-0.0252,-0.0273,-0.0278,-0.0281,-0.0288,-0.0299,-0.0278,-0.0299,-0.0298,-0.027,-0.0264,-0.0259,-0.0254,-0.0315,0,0,0,0,0,-0.0244,-0.0236,-0.0229,-0.021,-0.0204,-0.0217,-0.022,-0.0229,-0.0239,-0.0244,-0.0258,-0.0268,-0.0275,-0.0274,-0.0287,-0.0279,-0.0307,-0.0264,-0.0259,-0.0255,-0.0252,-0.0275,-0.0273,-0.0299,-0.0299,-0.0299,0,0,-0.0247,-0.0231,-0.0234,-0.0209,-0.021,-0.0201,-0.0218,-0.0219,-0.0213,-0.0247,-0.0243,-0.0261,-0.0272,-0.0266,-0.0265,-0.0268,-0.0264,-0.0253,-0.0249,-0.0249,-0.0273,-0.0271,-0.0269,-0.0298,-0.0298,-0.0298,0,0,-0.0231,-0.0214,-0.0198,-0.0194,-0.0187,-0.0194,-0.0192,-0.0198,-0.0197,-0.0201,-0.022,-0.0226,-0.0236,-0.0236,-0.0238,-0.0213,-0.0247,-0.0208,-0.0171,-0.0193,-0.0191,-0.019,-0.0234,-0.0237,-0.0195,-0.0195,-0.0195,0,-0.0225,-0.0194,-0.0197,-0.0169,-0.0165,-0.0186,-0.0167,-0.017,-0.0184,-0.0179,-0.0193,-0.0206,-0.0219,-0.0205,-0.0192,-0.0202,-0.023,-0.0194,-0.0188,-0.0187,-0.0187,-0.0232,-0.0236,-0.0193,-0.0193,-0.0193,-0.0193,0,-0.0194,-0.0171,-0.0158,-0.0132,-0.0129,-0.0122,-0.0121,-0.0119,-0.0128,-0.0134,-0.0131,-0.0153,-0.0158,-0.0155,-0.0167,-0.0156,-0.0184,-0.019,-0.0206,-0.0182,-0.0231,-0.0236,-0.019,-0.019,-0.0191,-0.0192,0,0,-0.0162,-0.0142,-0.0133,-0.0124,-0.0109,-0.0106,-0.0086,-0.0074,-0.0064,-0.0077,-0.0064,-0.0072,-0.0091,-0.0093,-0.0108,-0.0118,-0.0144,-0.0145,-0.0147,-0.0194,-0.0212,-0.0249,-0.0259,-0.0151,-0.0151,-0.0151,-0.0252,0,-0.013,-0.0089,-0.008,-0.0058,-0.0045,-0.0048,-0.0027,-0.0024,-0.003,-0.0027,-0.0039,-0.0044,-0.0063,-0.0069,-0.008,-0.013,-0.0152,-0.0117,-0.0222,-0.0226,-0.0267,-0.0264,-0.0286,-0.0379,-0.0257,-0.0258,-0.0258,0,-0.0086,-0.0071,-0.0033,-0.0025,-0.0013,-0.0009,0.001,0.0034,0.0039,0.0034,0.0027,0.0003,-0.0011,-0.0036,-0.0106,-0.0085,-0.0144,-0.0185,-0.019,-0.0241,-0.0272,-0.0379,-0.0393,-0.0503,-0.0266,-0.0266,-0.0265,0,-0.0067,-0.0037,-0.0009,-0.0003,0.0013,0.0023,0.0029,0.0044,0.006,0.0066,0.0059,0.0037,0.001,-0.0046,-0.013,-0.0122,-0.0223,-0.0225,-0.0319,-0.0324,-0.0371,-0.0379,-0.0507,-0.0283,-0.0283,-0.0282,-0.0282,0,-0.003,-0.0014,-0.0009,0.0004,0.0041,0.0037,0.0066,0.0085,0.0076,0.0088,0.0087,0.0066,0.0005,-0.0059,-0.0127,-0.0244,-0.0227,-0.032,-0.0348,-0.0359,-0.0364,-0.0484,-0.0519,-0.0286,-0.0285,-0.0284,-0.0284,0,-0.0007,0.0006,0.0037,0.0046,0.0057,0.0084,0.0082,0.0093,0.0091,0.01,0.0098,0.0065,-0.0011,-0.0084,-0.0194,-0.0257,-0.0426,-0.04,-0.0418,-0.0446,-0.0624,-0.0655,-0.0795,-0.0879,-0.0518,-0.052,-0.0521,0,0.0007,0.0024,0.0073,0.0103,0.0107,0.0123,0.0144,0.0124,0.012,0.0091,0.0095,0.002,-0.0016,-0.0181,-0.031,-0.0442,-0.0515,-0.0551,-0.0531,-0.0645,-0.0701,-0.0715,-0.0776,-0.0589,-0.0591,-0.0593,-0.0594,0,0.0019,0.0048,0.0061,0.0111,0.0138,0.0194,0.0188,0.0186,0.0166,0.0154,0.0112,0.0073,-0.0095,-0.0219,-0.0392,-0.0502,-0.0638,-0.0585,-0.0695,-0.0761,-0.0793,-0.0883,-0.0527,-0.0606,-0.0605,-0.0604,-0.0603,-0.0603,-0.0016,0.0014,0.0027,0.0085,0.0148,0.0229,0.0263,0.0253,0.0259,0.0267,0.0161,0.0153,-0.0069,-0.0306,-0.0499,-0.0808,-0.0765,-0.0859,-0.0889,-0.0895,-0.0968,-0.0648,-0.0757,-0.0756,-0.0756,-0.0756,-0.0756,0,-0.0104,-0.0073,-0.001,0.0057,0.0146,0.0197,0.0272,0.0314,0.0344,0.0356,0.0318,0.0186,-0.0077,-0.0373,-0.0779,-0.1021,-0.1133,-0.1152,-0.118,-0.1231,-0.0948,-0.0944,-0.1107,-0.1107,-0.1107,-0.1107,-0.1107,-0.1106,-0.0189,-0.0178,-0.011,0.0013,0.0104,0.022,0.029,0.0385,0.0425,0.0476,0.0466,0.0406,0.0119,-0.0525,-0.1082,-0.1242,-0.1439,-0.1465,-0.1554,-0.1353,-0.1327,-0.1303,-0.131,-0.1547,-0.1547,-0.1835,-0.1837,-0.1839]}],[{"header":{"parameterUnit":"m.s-1","parameterCategory":2,"la1":30.2991,"la2":30.254,"lo1":-89.0895,"lo2":-89.0444,"dy":0.0017,"dx":0.0017,"nx":28,"ny":28,"refTime":"2025-01-19T09:00:00:Z","depth":"2","parameterNumber":2,"parameterNumberName":"U-component_of_CURRENTS"},"data":[0,0,0,0,0,0,0,0,0,0,0,0,0,0,0,0,0,0,0,0,0,0,0,0,0,0,0,0,0,0,0,0,0,0,0,0,0,0,0,0,0,0,0,0,0,0,0,0,0,0,0,0,0,0,0,0,0,0,0.1835,0.1835,0,0.182,0.182,0.1819,0.1831,0.1832,0.1833,0.1834,0.1831,0.1831,0.183,0,0,0,0,0,0,0,0,0,0,0,0,0,0.1903,0.1901,0.1835,0.1835,0.1835,0.182,0.182,0.1819,0.1831,0.1832,0.1833,0.1835,0.1832,0.1831,0.183,0,0,0,0,0,0,0,0,0,0,0,0,0,0.1875,0.1901,0.1835,0.1843,0.1844,0.182,0.182,0.1819,0.1831,0.1832,0.1834,0.1835,0.1832,0.1831,0.1829,0.1793,0,0,0.1825,0.1824,0,0,0,0,0,0,0,0,0.1876,0.1872,0.1842,0.1843,0.1844,0.1833,0.1843,0.1812,0.1831,0.1831,0.1834,0.1836,0.1835,0.1833,0.1821,0.1792,0.1792,0.1825,0.1824,0.1823,0.1823,0,0,0,0,0,0,0,0.1878,0.1873,0.1824,0.1842,0.1843,0.1858,0.1855,0.1837,0.1822,0.1831,0.1833,0.1838,0.1835,0.1822,0.1821,0.1792,0.1825,0.1824,0.1823,0.1822,0.1825,0.1826,0,0,0,0,0,0,0.1886,0.1874,0.1825,0.1824,0.1869,0.1856,0.1852,0.1831,0.1822,0.1823,0.1837,0.1839,0.1824,0.1823,0.1821,0.1853,0.1823,0.1822,0.1821,0.1824,0.1825,0.1826,0,0,0,0,0,0,0.1887,0.188,0.1826,0.1855,0.1849,0.1853,0.183,0.183,0.1831,0.1827,0.1828,0.1841,0.1825,0.1823,0.1824,0.1851,0.1822,0.182,0.1823,0.1824,0.1826,0.1869,0,0,0,0,0,0,0.1888,0.188,0.1864,0.1854,0.1848,0.1828,0.1829,0.1829,0.1834,0.1836,0.183,0.183,0.1826,0.1826,0.1823,0.1848,0.1819,0.1822,0.1824,0.1825,0.1867,0.1872,0.1876,0,0,0,0,0,0.189,0.1865,0.1862,0.1857,0.1826,0.1829,0.1827,0.1833,0.1833,0.1837,0.1835,0.1831,0.1836,0.1825,0.1821,0.1847,0.1821,0.1823,0.1825,0.1864,0.1871,0.1876,0,0,0,0,0,0,0.1868,0.1864,0.1861,0.183,0.1839,0.1834,0.1833,0.1835,0.1832,0.1836,0.1828,0.1828,0.1855,0.1834,0.1822,0.1854,0.1833,0.1834,0.1865,0.187,0.1875,0.1866,0.1818,0,0,0,0,0,0.1859,0.1851,0.1849,0.1827,0.1832,0.1832,0.1832,0.1839,0.1839,0.1839,0.1835,0.1836,0.1854,0.1849,0.186,0.185,0.1832,0.187,0.1874,0.1879,0.1869,0.1846,0.1848,0.1833,0.1833,0.1833,0,0,0.1849,0.1842,0.1839,0.1825,0.1828,0.184,0.1835,0.1843,0.1854,0.1837,0.1845,0.1859,0.1861,0.1878,0.1885,0.1862,0.1881,0.1881,0.1885,0.1873,0.1849,0.185,0.1851,0.1834,0.1834,0.1834,0,0,0.1836,0.1816,0.1816,0.1826,0.1839,0.1845,0.1853,0.1856,0.186,0.1864,0.1878,0.1899,0.1894,0.1911,0.1917,0.1946,0.1922,0.1956,0.1952,0.1931,0.1932,0.1932,0.194,0.194,0.194,0.194,0.194,0,0.1825,0.1811,0.1818,0.1825,0.183,0.1852,0.1858,0.1869,0.1874,0.1865,0.1877,0.1893,0.1913,0.193,0.196,0.1959,0.1942,0.1931,0.1936,0.1936,0.1935,0.1942,0.1942,0.1942,0.1942,0.1942,0.1942,0,0.1827,0.1815,0.1818,0.1836,0.1844,0.1854,0.1877,0.1886,0.1894,0.1895,0.1912,0.1933,0.1932,0.1963,0.1974,0.1988,0.198,0.196,0.1918,0.1939,0.1946,0.1945,0.1946,0.1945,0.1944,0.1944,0,0,0.1788,0.1815,0.1811,0.182,0.1847,0.1854,0.1876,0.1885,0.1889,0.1905,0.1896,0.1954,0.1951,0.1959,0.1979,0.1973,0.1992,0.1963,0.1961,0.1966,0.1957,0.1999,0.2002,0.196,0.1959,0.1959,0.1974,0,0.1783,0.1795,0.1806,0.1822,0.1831,0.1852,0.1866,0.1881,0.189,0.1894,0.1912,0.1928,0.1953,0.1962,0.1961,0.199,0.1986,0.1991,0.1939,0.1938,0.1968,0.2001,0.1711,0.1703,0.1973,0.1973,0.1973,0,0.1769,0.178,0.1785,0.1807,0.181,0.184,0.1851,0.1856,0.187,0.1871,0.1873,0.1888,0.1914,0.1925,0.1942,0.1937,0.195,0.1964,0.1964,0.198,0.1978,0.172,0.1691,0.197,0.197,0.1971,0.1971,0,0.173,0.1756,0.1756,0.1766,0.1801,0.1816,0.184,0.1853,0.1862,0.1856,0.186,0.1865,0.189,0.1882,0.1935,0.1925,0.1951,0.1931,0.1978,0.1981,0.1714,0.1696,0.1924,0.1924,0.1924,0.1924,0.1924,0,0.1701,0.1704,0.1755,0.1757,0.1759,0.18,0.1818,0.1812,0.1857,0.1865,0.1847,0.1876,0.1878,0.1902,0.1918,0.1961,0.193,0.1987,0.1985,0.1729,0.1713,0.1917,0.1916,0.1925,0.1925,0.1925,0.1925,0,0.1641,0.1674,0.1669,0.1718,0.1735,0.1732,0.182,0.1832,0.1864,0.1878,0.188,0.1902,0.1938,0.1949,0.1971,0.1963,0.1983,0.2002,0.1732,0.17,0.203,0.2031,0.2039,0.2041,0.2042,0.2043,0.2044,0,0.1607,0.1596,0.1617,0.1612,0.1641,0.1688,0.1708,0.1796,0.1828,0.1908,0.1902,0.1967,0.2,0.2045,0.1934,0.192,0.2064,0.1768,0.1712,0.2043,0.204,0.2039,0.2038,0.137,0.1365,0.1361,0.1358,0,0.1515,0.1517,0.1527,0.1553,0.1578,0.1588,0.1662,0.171,0.1804,0.1846,0.195,0.2005,0.1972,0.1824,0.1793,0.1762,0.1741,0.1701,0.2051,0.1429,0.1424,0.1419,0.1436,0.1324,0.1327,0.133,0.1332,0.1333,0.1467,0.1449,0.1489,0.152,0.1516,0.1524,0.156,0.1604,0.1672,0.167,0.1824,0.1757,0.1736,0.1501,0.1476,0.1416,0.1553,0.1519,0.1523,0.1533,0.1496,0.1498,0.1406,0.1409,0.1413,0.1415,0.1418,0,0.1414,0.1486,0.1468,0.1518,0.1481,0.1517,0.1549,0.1519,0.1542,0.147,0.1491,0.1271,0.1144,0.1197,0.0969,0.1003,0.0892,0.108,0.0893,0.0926,0.0955,0.0884,0.0633,0.0632,0.0631,0.063,0,0,0.1431,0.1438,0.1443,0.1468,0.1513,0.146,0.1465,0.1332,0.1247,0.1099,0.0989,0.0911,0.1047,0.0752,0.0743,0.0678,0.08,0.0646,0.1249,0.1052,0.1081,0.1164,0.1087,0,0,0,0,0]},{"header":{"parameterUnit":"m.s-1","parameterCategory":2,"la1":30.2991,"la2":30.254,"lo1":-89.0895,"lo2":-89.0444,"dy":0.0017,"dx":0.0017,"nx":28,"ny":28,"refTime":"2025-01-19T09:00:00:Z","depth":"2","parameterNumber":3,"parameterNumberName":"V-component_of_CURRENTS"},"data":[0,0,0,0,0,0,0,0,0,0,0,0,0,0,0,0,0,0,0,0,0,0,0,0,0,0,0,0,0,0,0,0,0,0,0,0,0,0,0,0,0,0,0,0,0,0,0,0,0,0,0,0,0,0,0,0,0,0,-0.0171,-0.0171,0,-0.0196,-0.0196,-0.0196,-0.0212,-0.0212,-0.0213,-0.0213,-0.0252,-0.0253,-0.0254,0,0,0,0,0,0,0,0,0,0,0,0,0,-0.0233,-0.0231,-0.0171,-0.0171,-0.0172,-0.0195,-0.0196,-0.0196,-0.0212,-0.0212,-0.0213,-0.0213,-0.0252,-0.0253,-0.0254,0,0,0,0,0,0,0,0,0,0,0,0,0,-0.0226,-0.023,-0.0171,-0.0183,-0.0184,-0.0195,-0.0196,-0.0196,-0.0212,-0.0213,-0.0213,-0.0213,-0.0251,-0.0253,-0.0254,-0.0259,0,0,-0.0258,-0.0259,0,0,0,0,0,0,0,0,-0.0226,-0.0224,-0.0181,-0.0182,-0.0183,-0.0201,-0.0232,-0.0218,-0.0212,-0.0202,-0.0213,-0.0213,-0.0236,-0.0239,-0.0243,-0.0261,-0.0263,-0.0258,-0.0259,-0.026,-0.026,0,0,0,0,0,0,0,-0.0227,-0.0223,-0.0181,-0.0181,-0.0183,-0.0219,-0.0217,-0.023,-0.0218,-0.0202,-0.0204,-0.0206,-0.0237,-0.0241,-0.0244,-0.0263,-0.0258,-0.026,-0.0261,-0.0261,-0.0259,-0.0258,0,0,0,0,0,0,-0.0218,-0.0223,-0.018,-0.0181,-0.0206,-0.0217,-0.0216,-0.0195,-0.0217,-0.0221,-0.0206,-0.0207,-0.0239,-0.0242,-0.0245,-0.0232,-0.026,-0.0261,-0.0262,-0.0259,-0.0258,-0.0257,0,0,0,0,0,0,-0.0219,-0.0213,-0.0179,-0.0205,-0.0203,-0.0215,-0.0193,-0.0196,-0.02,-0.022,-0.0224,-0.0208,-0.0239,-0.0243,-0.0256,-0.0235,-0.0262,-0.0263,-0.0261,-0.0259,-0.0258,-0.022,0,0,0,0,0,0,-0.022,-0.0213,-0.0198,-0.0203,-0.0201,-0.0178,-0.0193,-0.0196,-0.0201,-0.0203,-0.0223,-0.0227,-0.024,-0.0254,-0.0257,-0.0237,-0.0264,-0.0262,-0.026,-0.0258,-0.0222,-0.0217,-0.0213,0,0,0,0,0,-0.0222,-0.0198,-0.0196,-0.0192,-0.0178,-0.0177,-0.0179,-0.0191,-0.0201,-0.0197,-0.0216,-0.0226,-0.0244,-0.0255,-0.0259,-0.0239,-0.0263,-0.026,-0.0258,-0.0224,-0.0218,-0.0213,0,0,0,0,0,0,-0.0202,-0.0197,-0.0196,-0.0166,-0.0169,-0.018,-0.0177,-0.0189,-0.02,-0.0204,-0.0226,-0.0231,-0.0234,-0.0241,-0.0251,-0.0231,-0.025,-0.0249,-0.0223,-0.0217,-0.0213,-0.0207,-0.0265,0,0,0,0,0,-0.0193,-0.0184,-0.0179,-0.0158,-0.0154,-0.0167,-0.017,-0.0178,-0.0189,-0.0194,-0.0209,-0.022,-0.0228,-0.0227,-0.024,-0.0232,-0.0259,-0.0217,-0.0213,-0.0209,-0.0206,-0.0228,-0.0225,-0.0251,-0.0251,-0.0251,0,0,-0.0187,-0.0178,-0.0176,-0.0157,-0.0158,-0.015,-0.0168,-0.0168,-0.0163,-0.0197,-0.0196,-0.0215,-0.0226,-0.022,-0.0219,-0.0221,-0.0218,-0.0206,-0.0203,-0.0202,-0.0226,-0.0223,-0.0221,-0.0249,-0.025,-0.025,0,0,-0.0167,-0.0151,-0.0138,-0.0136,-0.0133,-0.014,-0.0139,-0.0146,-0.0146,-0.0152,-0.0172,-0.018,-0.0191,-0.0191,-0.0193,-0.0169,-0.0203,-0.0166,-0.0128,-0.0149,-0.0148,-0.0147,-0.0192,-0.0195,-0.0151,-0.0151,-0.0151,0,-0.0159,-0.0129,-0.0135,-0.0116,-0.0112,-0.0133,-0.0115,-0.0119,-0.0133,-0.0129,-0.0145,-0.0161,-0.0174,-0.0161,-0.015,-0.0159,-0.0187,-0.015,-0.0145,-0.0144,-0.0144,-0.019,-0.0194,-0.0149,-0.0149,-0.015,-0.015,0,-0.0127,-0.0107,-0.0096,-0.008,-0.0076,-0.0067,-0.0069,-0.0067,-0.0078,-0.0086,-0.0085,-0.0108,-0.0114,-0.0112,-0.0125,-0.0114,-0.0143,-0.0148,-0.0161,-0.0139,-0.0189,-0.0194,-0.0146,-0.0147,-0.0148,-0.0148,0,0,-0.0097,-0.008,-0.0073,-0.0065,-0.0056,-0.0051,-0.0032,-0.0022,-0.0014,-0.0029,-0.0018,-0.0028,-0.0048,-0.0051,-0.0066,-0.0075,-0.0102,-0.0103,-0.0105,-0.0153,-0.0171,-0.0209,-0.0219,-0.0109,-0.0109,-0.0109,-0.0213,0,-0.0069,-0.0039,-0.0029,-0.0005,0.0005,0.0004,0.0024,0.0028,0.002,0.0021,0.0008,0.0,-0.002,-0.0027,-0.0038,-0.0089,-0.0111,-0.0075,-0.018,-0.0184,-0.0225,-0.0224,-0.0061,-0.0141,-0.0218,-0.0219,-0.0219,0,-0.0029,-0.0022,0.0015,0.0027,0.0037,0.0042,0.0062,0.0087,0.0089,0.0081,0.0073,0.0047,0.0033,0.0008,-0.0064,-0.0043,-0.0102,-0.0144,-0.0149,-0.02,-0.0231,-0.0172,-0.0148,-0.0228,-0.0227,-0.0227,-0.0226,0,-0.0011,0.0012,0.0041,0.0047,0.0063,0.0074,0.0081,0.0094,0.011,0.0114,0.0106,0.0081,0.0053,-0.0003,-0.0088,-0.008,-0.0183,-0.0185,-0.028,-0.0285,-0.0174,-0.0169,-0.0242,-0.0242,-0.0242,-0.0242,-0.0242,0,0.0023,0.0038,0.004,0.0052,0.0088,0.0086,0.0115,0.0134,0.0123,0.0135,0.0134,0.0112,0.0048,-0.0017,-0.0086,-0.0205,-0.0188,-0.0281,-0.031,-0.0159,-0.0151,-0.0242,-0.0241,-0.0246,-0.0245,-0.0244,-0.0243,0,0.0048,0.006,0.0091,0.0097,0.0105,0.0132,0.0128,0.0139,0.0137,0.0146,0.0144,0.0109,0.0031,-0.0043,-0.0155,-0.0219,-0.0314,-0.0362,-0.0197,-0.0205,-0.0405,-0.0401,-0.0479,-0.0481,-0.0483,-0.0485,-0.0486,0,0.0063,0.008,0.0127,0.0156,0.0158,0.0171,0.0188,0.0167,0.0164,0.0136,0.0141,0.0064,0.005,-0.0118,-0.0174,-0.0283,-0.0385,-0.0324,-0.0278,-0.0408,-0.0428,-0.042,-0.0413,-0.0121,-0.0119,-0.0117,-0.0116,0,0.0074,0.0105,0.0116,0.0163,0.0188,0.0243,0.0233,0.023,0.0212,0.0216,0.0174,0.0158,0.0062,0.0042,-0.0105,-0.018,-0.0284,-0.0305,-0.046,-0.0098,-0.0081,-0.0098,-0.01,-0.0103,-0.0104,-0.0105,-0.0106,-0.0106,0.0035,0.0065,0.0079,0.0136,0.02,0.0283,0.0317,0.0344,0.0372,0.0463,0.0335,0.041,0.0259,0.0226,0.0032,-0.0158,-0.0176,-0.026,-0.0259,-0.0261,-0.0213,-0.0201,-0.0238,-0.024,-0.0241,-0.0243,-0.0244,0,0.0008,-0.0025,0.0039,0.0111,0.0236,0.0257,0.0329,0.0431,0.0535,0.0649,0.0714,0.0663,0.062,0.0372,0.0191,-0.0002,0.0046,-0.0155,-0.0026,-0.0035,-0.0044,0.0018,0.0052,0.0051,0.005,0.005,0,0,-0.0065,-0.0024,0.0048,0.0165,0.0207,0.0367,0.0438,0.0653,0.0784,0.0972,0.105,0.116,0.0772,0.0663,0.041,0.0229,0.0132,0.0192,-0.0001,0.0181,0.0173,-0.004,0.0052,0,0,0,0,0]}],[{"header":{"parameterUnit":"m.s-1","parameterCategory":2,"la1":30.2991,"la2":30.254,"lo1":-89.0895,"lo2":-89.0444,"dy":0.0017,"dx":0.0017,"nx":28,"ny":28,"refTime":"2025-01-19T09:00:00:Z","depth":"4","parameterNumber":2,"parameterNumberName":"U-component_of_CURRENTS"},"data":[0,0,0,0,0,0,0,0,0,0,0,0,0,0,0,0,0,0,0,0,0,0,0,0,0,0,0,0,0,0,0,0,0,0,0,0,0,0,0,0,0,0,0,0,0,0,0,0,0,0,0,0,0,0,0,0,0,0,0.0672,0.0671,0,0.0712,0.0713,0.0715,0.0811,0.0813,0.0814,0.0815,0.0814,0.0813,0.0812,0,0,0,0,0,0,0,0,0,0,0,0,0,0.0589,0.0592,0.0672,0.0671,0.0671,0.0712,0.0713,0.0715,0.0811,0.0813,0.0814,0.0816,0.0815,0.0813,0.0812,0,0,0,0,0,0,0,0,0,0,0,0,0,0.0635,0.0592,0.0672,0.0718,0.0722,0.0712,0.0714,0.0715,0.0811,0.0813,0.0815,0.0816,0.0815,0.0813,0.0812,0.0764,0,0,0.0806,0.0806,0,0,0,0,0,0,0,0,0.0633,0.064,0.0711,0.0714,0.0719,0.0751,0.0684,0.0726,0.081,0.0786,0.0815,0.0817,0.0782,0.0783,0.08,0.0764,0.0764,0.0806,0.0805,0.0804,0.0804,0,0,0,0,0,0,0,0.063,0.0638,0.0696,0.0711,0.0715,0.0705,0.0716,0.0693,0.0779,0.0788,0.0793,0.0784,0.0786,0.0801,0.08,0.0764,0.0806,0.0805,0.0804,0.0803,0.0852,0.0854,0,0,0,0,0,0,0.061,0.0635,0.0695,0.0697,0.067,0.0705,0.0717,0.0746,0.0781,0.0786,0.0782,0.0788,0.0804,0.0802,0.08,0.086,0.0804,0.0803,0.0802,0.085,0.0852,0.0855,0,0,0,0,0,0,0.0609,0.0617,0.0693,0.0657,0.0666,0.0705,0.0736,0.0745,0.0806,0.0774,0.0781,0.0836,0.0805,0.0803,0.083,0.0857,0.0802,0.08,0.0847,0.085,0.0854,0.0906,0,0,0,0,0,0,0.0607,0.0617,0.0648,0.0658,0.0667,0.0705,0.0733,0.0745,0.0789,0.0799,0.0821,0.0821,0.0806,0.0833,0.0828,0.0853,0.0799,0.0844,0.0848,0.0853,0.0901,0.0911,0.0919,0,0,0,0,0,0.0605,0.0631,0.065,0.0657,0.0704,0.0705,0.0711,0.0747,0.0791,0.0813,0.0847,0.0823,0.0858,0.0833,0.0827,0.0852,0.0842,0.0847,0.0852,0.0897,0.0909,0.0919,0,0,0,0,0,0,0.0622,0.0642,0.0664,0.0702,0.0709,0.0719,0.0744,0.0769,0.0817,0.0839,0.0838,0.0839,0.0876,0.0862,0.0834,0.0886,0.0851,0.0855,0.0887,0.0898,0.0907,0.0911,0.0798,0,0,0,0,0,0.0633,0.0663,0.067,0.0704,0.0714,0.074,0.0755,0.0772,0.0798,0.0826,0.0833,0.0858,0.0884,0.0892,0.0896,0.0909,0.0878,0.093,0.0939,0.0946,0.095,0.0943,0.0951,0.0872,0.0872,0.0872,0,0,0.0634,0.0662,0.0672,0.0708,0.0731,0.0743,0.0759,0.0783,0.0816,0.0809,0.087,0.088,0.0898,0.0926,0.0941,0.0921,0.095,0.0953,0.0958,0.0959,0.095,0.0957,0.0963,0.0876,0.0875,0.0875,0,0,0.0649,0.0698,0.0721,0.0736,0.076,0.0765,0.0781,0.0799,0.0844,0.0887,0.0902,0.0937,0.0966,0.0977,0.0995,0.1055,0.0998,0.1061,0.1101,0.1095,0.11,0.1105,0.1052,0.1052,0.1064,0.1064,0.1064,0,0.0664,0.07,0.0723,0.0755,0.0764,0.0784,0.0798,0.0841,0.0865,0.0895,0.0921,0.0985,0.0999,0.1038,0.1078,0.1072,0.1042,0.1054,0.1103,0.1107,0.1111,0.1056,0.1054,0.1067,0.1067,0.1066,0.1066,0,0.0678,0.0722,0.074,0.0789,0.08,0.0814,0.0846,0.0879,0.0934,0.0964,0.1028,0.1051,0.1087,0.1105,0.1123,0.1155,0.1114,0.1111,0.1066,0.1121,0.106,0.1058,0.1071,0.107,0.1069,0.1069,0,0,0.0688,0.0738,0.0753,0.0774,0.0818,0.082,0.0883,0.0922,0.0976,0.1022,0.1078,0.1153,0.1159,0.118,0.1181,0.1191,0.1199,0.1174,0.1172,0.1103,0.1148,0.108,0.1069,0.12,0.1201,0.1202,0.1085,0,0.0702,0.0743,0.0768,0.0803,0.0817,0.0854,0.0915,0.0959,0.1014,0.1068,0.1118,0.1173,0.1191,0.1212,0.1228,0.1212,0.12,0.1229,0.1121,0.1117,0.1036,0.1068,0.1204,0.1083,0.1082,0.1081,0.1081,0,0.071,0.0739,0.0769,0.0815,0.0831,0.0853,0.0921,0.0985,0.107,0.1118,0.1162,0.1192,0.1226,0.1238,0.1222,0.1237,0.1204,0.1183,0.1178,0.1096,0.1046,0.1025,0.1076,0.1076,0.1077,0.1077,0.1077,0,0.0686,0.0737,0.0757,0.0774,0.0836,0.0864,0.0909,0.0996,0.1039,0.1139,0.1164,0.1206,0.1224,0.1213,0.12,0.1211,0.1155,0.1154,0.1042,0.1034,0.1103,0.11,0.1127,0.1127,0.1128,0.1128,0.1128,0,0.0684,0.0708,0.0746,0.0766,0.0811,0.0861,0.0913,0.0994,0.1044,0.107,0.1187,0.1177,0.1226,0.1204,0.1185,0.1102,0.1137,0.1046,0.101,0.1126,0.1127,0.1098,0.1097,0.1124,0.1125,0.1125,0.1126,0,0.0662,0.0697,0.0728,0.0784,0.0806,0.085,0.0888,0.0908,0.1009,0.103,0.1056,0.1132,0.1127,0.1139,0.1101,0.1063,0.1005,0.0958,0.1052,0.1023,0.088,0.0883,0.0812,0.0809,0.0807,0.0804,0.0803,0,0.0641,0.0653,0.0732,0.0743,0.0768,0.0809,0.0829,0.0899,0.0885,0.0971,0.0952,0.0992,0.1029,0.0921,0.0958,0.09,0.0894,0.085,0.0905,0.088,0.0853,0.086,0.0866,0.0798,0.0798,0.0797,0.0796,0,0.058,0.0629,0.0648,0.0677,0.0692,0.0711,0.0719,0.069,0.0758,0.084,0.082,0.0837,0.0827,0.0832,0.081,0.0769,0.0886,0.0822,0.0827,0.0879,0.0862,0.0839,0.0849,0.0787,0.0788,0.0789,0.079,0,0.0501,0.0517,0.0532,0.0564,0.0585,0.0574,0.0612,0.0562,0.0572,0.066,0.0626,0.0714,0.077,0.0757,0.0723,0.0706,0.0696,0.0675,0.0688,0.0699,0.0728,0.0694,0.0532,0,0,0,0,0,0.0395,0.0385,0.0393,0.0412,0.0439,0.0459,0.0497,0.0524,0.0576,0.0532,0.057,0.0565,0.0575,0.0618,0.0576,0.0663,0.0691,0.0611,0.0672,0.0736,0.0747,0.0798,0,0,0,0,0,0,0.0294,0.0287,0.0335,0.0264,0.026,0.0263,0.0299,0.0359,0.0331,0.0416,0.0428,0.0507,0.0529,0.0575,0.0554,0.0564,0.0584,0.0655,0.0653,0.073,0.074,0.0748,0.0805,0,0,0,0,0]},{"header":{"parameterUnit":"m.s-1","parameterCategory":2,"la1":30.2991,"la2":30.254,"lo1":-89.0895,"lo2":-89.0444,"dy":0.0017,"dx":0.0017,"nx":28,"ny":28,"refTime":"2025-01-19T09:00:00:Z","depth":"4","parameterNumber":3,"parameterNumberName":"V-component_of_CURRENTS"},"data":[0,0,0,0,0,0,0,0,0,0,0,0,0,0,0,0,0,0,0,0,0,0,0,0,0,0,0,0,0,0,0,0,0,0,0,0,0,0,0,0,0,0,0,0,0,0,0,0,0,0,0,0,0,0,0,0,0,0,0.0305,0.0306,0,0.0297,0.0296,0.0296,0.0299,0.0299,0.03,0.03,0.0283,0.0283,0.0282,0,0,0,0,0,0,0,0,0,0,0,0,0,0.0337,0.0336,0.0305,0.0306,0.0306,0.0297,0.0296,0.0296,0.0299,0.0299,0.03,0.03,0.0284,0.0283,0.0282,0,0,0,0,0,0,0,0,0,0,0,0,0,0.0323,0.0335,0.0305,0.0308,0.0308,0.0297,0.0296,0.0296,0.0299,0.0299,0.03,0.0301,0.0284,0.0283,0.0282,0.0262,0,0,0.0278,0.0277,0,0,0,0,0,0,0,0,0.0324,0.0321,0.0307,0.0307,0.0308,0.0301,0.0301,0.0285,0.0299,0.03,0.03,0.0301,0.029,0.0288,0.0282,0.0262,0.0261,0.0278,0.0277,0.0276,0.0276,0,0,0,0,0,0,0,0.0324,0.0322,0.03,0.0307,0.0308,0.0313,0.0312,0.0298,0.029,0.03,0.0301,0.0303,0.0289,0.0283,0.0282,0.0261,0.0278,0.0277,0.0276,0.0275,0.0233,0.0233,0,0,0,0,0,0,0.0328,0.0323,0.03,0.03,0.032,0.0312,0.031,0.0301,0.029,0.029,0.0302,0.0303,0.0285,0.0283,0.0281,0.0276,0.0276,0.0275,0.0275,0.0233,0.0233,0.0233,0,0,0,0,0,0,0.0329,0.0326,0.0301,0.0314,0.0311,0.0311,0.0301,0.0301,0.0299,0.0293,0.0292,0.0302,0.0285,0.0283,0.0264,0.0275,0.0275,0.0274,0.0234,0.0233,0.0233,0.0255,0,0,0,0,0,0,0.033,0.0326,0.0319,0.0313,0.031,0.0303,0.0301,0.03,0.0301,0.0301,0.0292,0.0291,0.0286,0.0266,0.0263,0.0273,0.0273,0.0234,0.0234,0.0233,0.0255,0.0255,0.0255,0,0,0,0,0,0.033,0.0325,0.0318,0.0316,0.0301,0.0303,0.0302,0.0303,0.03,0.0303,0.0285,0.0291,0.026,0.0264,0.0261,0.0271,0.0235,0.0234,0.0233,0.0254,0.0255,0.0255,0,0,0,0,0,0,0.0343,0.0325,0.0317,0.0308,0.0308,0.0305,0.0306,0.0303,0.0291,0.0292,0.0279,0.0276,0.0269,0.0258,0.0264,0.0255,0.0251,0.0249,0.0268,0.0269,0.0269,0.0286,0.0272,0,0,0,0,0,0.0339,0.0328,0.0318,0.0314,0.0311,0.0306,0.0306,0.0308,0.0299,0.0295,0.0282,0.0269,0.0261,0.0255,0.0246,0.0233,0.023,0.0239,0.0239,0.024,0.025,0.0228,0.0228,0.023,0.023,0.023,0,0,0.0363,0.0334,0.0342,0.0316,0.0313,0.0318,0.0307,0.0313,0.0315,0.0294,0.0283,0.027,0.0257,0.0249,0.0245,0.0243,0.024,0.0239,0.0239,0.025,0.0227,0.0227,0.0227,0.0229,0.0229,0.0229,0,0,0.038,0.0358,0.0352,0.0346,0.0332,0.0331,0.0333,0.0324,0.0316,0.0303,0.0291,0.028,0.0259,0.0255,0.0251,0.0244,0.0244,0.0242,0.0257,0.0236,0.0236,0.0236,0.0246,0.0247,0.024,0.024,0.024,0,0.0387,0.0381,0.0357,0.0341,0.0344,0.0337,0.0346,0.0337,0.0324,0.0313,0.0305,0.0276,0.0267,0.0262,0.0263,0.0249,0.0242,0.0259,0.0238,0.0237,0.0237,0.0247,0.0248,0.0241,0.0241,0.0241,0.0241,0,0.0411,0.04,0.0398,0.0374,0.0373,0.0383,0.0371,0.0365,0.0352,0.0341,0.0324,0.0302,0.0287,0.0283,0.0273,0.0267,0.0267,0.0243,0.024,0.0238,0.0249,0.0249,0.0242,0.0242,0.0242,0.0242,0,0,0.0421,0.0413,0.0411,0.0413,0.0391,0.0402,0.0394,0.0388,0.0387,0.0364,0.0354,0.0338,0.0322,0.0315,0.0298,0.0283,0.0281,0.0264,0.0262,0.0283,0.0253,0.0253,0.0253,0.0246,0.0245,0.0245,0.0268,0,0.0436,0.0439,0.0422,0.0445,0.0453,0.0436,0.0428,0.0422,0.0405,0.039,0.0364,0.035,0.0334,0.0326,0.0309,0.0286,0.0279,0.0278,0.0245,0.0245,0.0251,0.0252,0.0244,0.0268,0.0268,0.0268,0.0268,0,0.0453,0.0452,0.0471,0.0477,0.0477,0.0494,0.0492,0.0483,0.0453,0.0427,0.0406,0.0379,0.0364,0.034,0.0312,0.0309,0.0288,0.0271,0.027,0.0263,0.0244,0.0265,0.0268,0.0268,0.0268,0.0268,0.0268,0,0.0481,0.0486,0.0505,0.0508,0.0507,0.052,0.0532,0.0508,0.0508,0.0459,0.0448,0.0409,0.0404,0.0359,0.0329,0.0313,0.0299,0.0269,0.0255,0.0256,0.0241,0.0241,0.0247,0.0247,0.0247,0.0247,0.0247,0,0.0488,0.0509,0.0534,0.0547,0.057,0.0567,0.0594,0.0565,0.0566,0.0571,0.0481,0.0484,0.0405,0.0385,0.0341,0.0312,0.0308,0.0269,0.0257,0.0252,0.0252,0.0243,0.0242,0.0248,0.0247,0.0247,0.0247,0,0.0497,0.0511,0.0535,0.0565,0.0577,0.06,0.0657,0.0687,0.0648,0.0654,0.064,0.0566,0.0517,0.0449,0.0391,0.0345,0.0301,0.029,0.0322,0.031,0.0272,0.0272,0.0274,0.0274,0.0274,0.0274,0.0274,0,0.0505,0.0517,0.0551,0.0577,0.0596,0.0652,0.0692,0.0712,0.0752,0.0715,0.0726,0.067,0.0609,0.0531,0.0448,0.0356,0.0334,0.031,0.0262,0.0285,0.0273,0.0273,0.0273,0.0274,0.0274,0.0274,0.0274,0,0.052,0.0525,0.0559,0.0617,0.0676,0.0728,0.0809,0.0839,0.0853,0.0823,0.0793,0.0711,0.0654,0.0556,0.0481,0.0414,0.0317,0.031,0.0309,0.0263,0.0285,0.0273,0.0273,0.0274,0.0274,0.0274,0.0274,0,0.0561,0.0582,0.064,0.0682,0.0749,0.0813,0.0833,0.0901,0.0932,0.0883,0.0891,0.0772,0.0719,0.0591,0.0532,0.045,0.0416,0.0372,0.0367,0.0366,0.0368,0.0408,0.0434,0,0,0,0,0,0.0617,0.0662,0.0712,0.079,0.0845,0.0883,0.0923,0.0941,0.0952,0.0934,0.0914,0.0846,0.0705,0.0646,0.0565,0.0538,0.0413,0.044,0.0363,0.0276,0.0275,0.0259,0,0,0,0,0,0,0.0677,0.0739,0.0746,0.0872,0.0928,0.1021,0.1037,0.1022,0.1014,0.0973,0.0903,0.0836,0.0711,0.0769,0.0574,0.0547,0.0484,0.0372,0.037,0.0276,0.0275,0.0275,0.0259,0,0,0,0,0]}]]